Location: A�t �Alizem
(31.2076°N, 8.7872°W)
Time: 06:05:01
(UTC+00:00)

Cosmos 1680 Rocket - Pass Details

Date: 27 November 2020
Orbit: 760 x 781 km, 74.1° (Epoch: 25 January)

Event Time Altitude Azimuth Distance (km) Brightness Sun altitude
Rises 20:01:47 0° 208° (SSW) 3,219 7.2 -31.4°
Reaches altitude 10° 20:04:12 10° 213° (SSW) 2,299 6.4 -31.9°
Enters shadow 20:08:19 45° 255° (WSW) 1,049 4.5 -32.8°
